Location: Newark
(30.0333°N, 31.2167°E)
Time: 20:48:03
(UTC+00:00)

ISS - Visible Passes

Search period start: 18 October 2019 00:00
Search period end: 28 October 2019 00:00
Orbit: 411 x 421 km, 51.6° (Epoch: 19 October)

Date Brightness Start Highest point End Pass type
(mag) Time Alt. Az. Time Alt. Az. Time Alt. Az.
22 Oct -1.9 03:12:44 10° SSW 03:15:46 32° SE 03:18:48 10° ENE visible
23 Oct -0.8 02:25:09 10° SSE 02:27:20 16° SE 02:29:30 10° E visible
24 Oct -3.7 03:12:05 11° SW 03:15:13 60° NW 03:18:33 10° NE visible
25 Oct -3.4 02:26:39 62° SE 02:26:40 62° SE 02:29:59 10° NE visible
26 Oct -0.3 01:40:56 11° ENE 01:40:56 11° ENE 01:41:06 10° ENE visible
26 Oct -2.1 03:13:52 17° WNW 03:14:53 19° NW 03:17:23 10° N visible
27 Oct -1.7 02:27:56 20° N 02:27:56 20° N 02:29:15 10° NNE visible
